TimePDT,TemperatureF,Dew PointF,Humidity,Sea Level PressureIn,VisibilityMPH,Wind Direction,Wind SpeedMPH,Gust SpeedMPH,PrecipitationIn,Events,Conditions,WindDirDegrees,DateUTC
12:56 AM,46.9,39.9,77,30.14,10.0,Calm,Calm,-,N/A,,Clear,0,2012-10-05 07:56:00
1:56 AM,45.0,37.9,76,30.15,10.0,Calm,Calm,-,N/A,,Clear,0,2012-10-05 08:56:00
2:56 AM,45.0,37.0,74,30.15,10.0,Calm,Calm,-,N/A,,Clear,0,2012-10-05 09:56:00
3:56 AM,44.1,36.0,73,30.14,10.0,Calm,Calm,-,N/A,,Clear,0,2012-10-05 10:56:00
4:56 AM,41.0,36.0,82,30.14,10.0,Calm,Calm,-,N/A,,Clear,0,2012-10-05 11:56:00
5:56 AM,42.1,36.0,79,30.15,10.0,Calm,Calm,-,N/A,,Clear,0,2012-10-05 12:56:00
6:56 AM,42.1,37.0,82,30.17,10.0,Calm,Calm,-,N/A,,Clear,0,2012-10-05 13:56:00
7:56 AM,43.0,37.9,82,30.18,10.0,Calm,Calm,-,N/A,,Clear,0,2012-10-05 14:56:00
8:56 AM,50.0,42.1,74,30.17,10.0,Calm,Calm,-,N/A,,Clear,0,2012-10-05 15:56:00
9:56 AM,57.9,45.0,62,30.17,10.0,Calm,Calm,-,N/A,,Clear,0,2012-10-05 16:56:00
10:56 AM,64.9,45.0,48,30.15,10.0,Variable,4.6,-,N/A,,Clear,0,2012-10-05 17:56:00
11:14 AM,66.2,44.6,46,30.14,1.8,Calm,Calm,-,N/A,,Haze,0,2012-10-05 18:14:00
11:28 AM,66.2,44.6,46,30.14,10.0,Calm,Calm,-,N/A,,Clear,0,2012-10-05 18:28:00
11:56 AM,69.1,44.1,40,30.15,10.0,Variable,4.6,-,N/A,,Clear,0,2012-10-05 18:56:00
12:56 PM,69.1,45.0,42,30.14,10.0,Variable,4.6,-,N/A,,Clear,0,2012-10-05 19:56:00
1:56 PM,71.1,45.0,39,30.13,10.0,Variable,3.5,-,N/A,,Clear,0,2012-10-05 20:56:00
2:56 PM,71.1,44.1,38,30.12,10.0,Calm,Calm,-,N/A,,Clear,0,2012-10-05 21:56:00
3:56 PM,71.1,42.1,35,30.11,-9999.0,Calm,Calm,-,N/A,,Clear,0,2012-10-05 22:56:00
4:56 PM,66.9,42.1,40,30.12,-9999.0,Calm,Calm,-,N/A,,Clear,0,2012-10-05 23:56:00
5:56 PM,64.0,41.0,43,30.13,-9999.0,Calm,Calm,-,N/A,,Clear,0,2012-10-06 00:56:00
6:56 PM,59.0,37.9,46,30.15,-9999.0,Calm,Calm,-,N/A,,Clear,0,2012-10-06 01:56:00
7:56 PM,57.9,37.9,47,30.15,-9999.0,East,3.5,-,N/A,,Clear,80,2012-10-06 02:56:00
8:56 PM,50.0,39.0,66,30.16,-9999.0,Calm,Calm,-,N/A,,Clear,0,2012-10-06 03:56:00
9:56 PM,46.9,37.9,71,30.15,-9999.0,Calm,Calm,-,N/A,,Clear,0,2012-10-06 04:56:00
10:56 PM,43.0,37.0,80,30.15,-9999.0,Calm,Calm,-,N/A,,Clear,0,2012-10-06 05:56:00
11:56 PM,42.1,37.0,82,30.14,-9999.0,Calm,Calm,-,N/A,,Clear,0,2012-10-06 06:56:00